NapervilleWeather.com

Find the Weather for any City, State  
or Zipcode, or Country:

Naperville, IL Weather
Local Radar

Local Radar

Graphs, Details
Graphs and Gauges
Detailed Weather
Detailed Reports
Ajax Version (old)
Davis Summary
Davis Current Weather Graphs
Davis 24 Hour Weather History
Cumulus

CW7164 Data

Weather Underground
www.awekas.at
Automatic Weather Map System
Latest Naperville, Illinois, weather
Weather For You
Maps
Temperature
Heat Index
Windchill
Humidity
Radar
Dew Point
Wind
Visibility
Visible Satellite
Satellite
Fronts
Snow Depth
Jet Stream
Flight Rules
Forecast Maps
Temperature Forecast
Maximum Temperature Forecast
Minimum Temperature Forecast
Dewpoint Forecast
Prevalent Weather
12Hr Probability of Precip.
Sky Cover
Health Maps
UV Forecast
Air Quality
Peak Air Quality Index
Weather Station
Davis Instruments Vantage Pro2
Current Conditions [Select Refresh to Update]

Updated: 2:44pm on 10/31/14

(location)
Currently:
39.3°F

Clear
Overcast

High: 46.2 °F< 
(2:13am
Low: 34.4 °F 
(7:51am)
Wind: WSW 6 mph
Light Breeze
Gust: 18 mph
Today's High Wind: 28 mph (1:57pm)
Humidity: 52%
Pressure: 30.24 in  (Steady
Pressure Rate: 0.020 in/hr
Dew Point: 23.2°F
Wind Chill: 34.9 °F
Heat Index (feels like): 40.3 °F
Comfort Level: Cool
Temperature Rate:  -0.11°F/hr
 
5 Day Forecast
 
Fri Sat Sun Mon Tue
Clear Clear Clear Clear Clear
Partly Cloudy Partly Cloudy Partly Cloudy Mostly Cloudy Chance Rain
43 45 48 57 55
27 27 37 46 36

Records and Normals
 
Temperature Forecast Normal Record
High 43 0 0
(0)
Low 27 0 0
(0)
 
 
Weather Advisories
No Warnings
Full Advisory Text...
Weather Map

Web Cam

Almanac
 
Sunrise:  
7:25am
Moonrise: 
2:08pm

Moon Phase:
57%

Sunset: 
5:49pm
Moonset:  
12:06am
 Star Chart...
Rainfall Totals
Hourly Rain 0.00 in
Daily Rain: 0.00 in
Monthly Rain: 2.47 in
Yearly Rain: 32.36 in
Normal Rain, month to date: 0.00 in
Normal Rain, year to date: 0.00 in
Local Weather Exchange Network
Station ID City 
(Click for Map Location)
Neighborhood 
(Click for History)
Last Update (Date & Time) Temperature
 ()
Dew
Point ()
Humidity 
(%)
Wind 
(mph)
from the Wind Gust 
(mph) 
Pressure(in) Hourly
Rain(in)
KILNAPER15 Naperville Indian Hill Near Jefferson JHS 10/31 14:35:07 39.7 25.0 56 16 North 26 30.20 0.00
KILNAPER21 Naperville Saybrook 10/31 14:30:16 38.9 26.0 59 9 NNW 21 30.24 0.00
KILNAPER25 Naperville brushhill-w 10/31 14:22:07 40.4 25.0 54 12 NW 16 30.19 0.00
KILNAPER24 Naperville Brush Hill 10/31 14:33:41 39.8 25.0 56 13 NE 18 30.15 0.00
KILNAPER19 Naperville Brookdale Lakes 10/31 14:35:12 39.4 26.0 58 5 WNW 19 30.17 0.00
KILNAPER7 Naperville NapervilleWeather.com Near Ogden and Naper Blvd 10/31 14:35:11 39.2 24.0 53 6 WSW 26 30.23 0.00
KILWARRE2 Warrenville Warrenville Neighborhood Weather 10/31 14:35:06 39.4 26.0 59 5 North 20 30.20 0.00
KILNAPER23 Naperville Naper Blvd at BNSF RR 10/31 14:35:10 39.5 26.0 59 4 NE 16 30.21 0.00
KILNAPER9 Naperville 75th St. / Modaff Area 10/31 14:35:13 40.0 26.0 58 7 East 17 30.20 0.00
KILLISLE7 Lisle Beau Monde Drive 10/31 14:30:55 40.8 26.0 55 0 North 0 30.25 0.00
KILWHEAT8 Wheaton Wheaton Sanitary District 10/31 14:23:16 40.6 28.0 61 4 WNW 20 30.21 0.00
KILWHEAT11 Wheaton Wheaton SW Orth Ct 10/31 14:35:11 42.5 28.0 57 3 South 3 30.30 0.00
KILLOMBA6 Wheaton Danada West 10/31 14:34:15 39.0 24.0 55 10 NW 14 30.25 0.00
KILNAPER16 Naperville SE Naperville / NE Clow Arpt 10/31 14:35:12 40.4 26.0 57 13 NNE 29 30.22 0.00
KILNAPER22 Naperville Willow Ridge 10/31 14:25:10 40.1 27.0 60 5 ENE 0 30.01 0.00
KILWHEAT5 Wheaton N9ABF - West Wheaton 10/31 14:24:45 39.4 25.0 56 11 NNW 0 30.17 0.00
KILGLENE9 Glen Ellyn Valley View 10/31 14:30:44 41.0 26.0 54 8 ESE 0 30.07 0.00
KILWINFI2 Winfield Winfield Heights (SarahNet) 10/31 14:31:41 39.6 26.0 58 0 NNW 17 30.21 0.00
KILWOODR4 Woodridge Woodridge Neighborhood Weather 10/31 14:24:48 40.7 25.0 54 14 North 30 30.18 0.00
KILWINFI3 Winfield Fredericksburg Farm 10/31 14:35:11 38.4 25.0 59 6 WNW 15 30.14 0.00
KILWHEAT10 Wheaton Wheaton College 10/31 14:30:17 38.5 25.0 57 11 NNE 28 30.20 0.00
KILWOODR2 Woodridge Woodridge 10/31 14:35:11 39.8 26.0 58 13 East 13 30.08 0.00
KILWOODR1 Woodridge 75th Street/ Janes Ave 10/31 14:35:11 40.6 27.0 59 4 South 14 29.40 0.00
KILBATAV5 Batavia Fermi National Accelerator Laboratory 10/31 14:25:26 39.1 25.0 57 16 NNW 26 30.18 0.00
KILBOLIN15 Bolingbrook Winding Meadows 10/31 14:35:10 39.8 23.0 51 11 NE 17 30.20 0.00
KILBOLIN20 Bolingbrook Bolingbrook - Royce Road 10/31 14:35:12 40.2 24.0 53 8 NW 8 29.50 0.00
KILDOWNE3 Downers Grove Maple Woods West 10/31 14:35:12 40.6 31.0 68 11 North 15 30.23 0.00
KILBOLIN12 Bolingbrook UnderTheThunder HQ 10/31 14:34:55 40.3 26.0 57 14 North 16 30.20 0.00
KILBOLIN13 Bolingbrook UnderTheThunder.org Van 10/31 14:33:21 39.8 26.0 57 3 WNW 3 30.16 0.00
KILAUROR22 Aurora Lakewood Valley 10/31 14:22:19 40.1 26.0 58 9 WNW 0 29.98 0.00
KILWOODR6 Woodridge Kelly Court 10/31 14:30:52 40.8 28.0 61 0 North 0 30.19 0.00
KILNAPER4 Naperville 1.1 mi.West. of Rt 59 & 103rd St. 10/31 14:34:35 39.3 22.0 50 9 NW 13 30.14 0.00
KILAUROR23 Aurora Summerlin 10/31 14:29:29 39.6 26.0 57 10 NW 0 30.05 0.00
KILGLENE7 Glen Ellyn Glen Ellyn Civic Center 10/31 14:35:12 38.7 25.0 59 23 North 28 30.27 0.00
KILDOWNE6 Downers Grove DGMidTown 10/31 14:34:41 39.7 27.0 59 12 NNW 0 30.08 0.00
KILDOWNE8 Downers Grove Oak Creek 10/31 14:29:06 40.1 25.0 55 5 South 0 30.11 0.00
KILBOLIN8 Bolingbrook Bolingbrook Neighborhood Weather 10/31 14:35:09 39.6 26.0 57 5 NNW 18 30.22 0.00
KDPA Chicago DuPage Official Station 10/31 13:52:00 40.0 22.0 49 32 North --- 30.21 ---
KLOT Romeoville Official Station 10/31 14:15:00 40.0 23.0 50 26 North --- 30.17 ---
KARR Aurora Official Station 10/31 13:52:00 41.0 20.0 43 38 NNW --- 30.21 ---
Full Advisory Text
No Warnings

Ambient Weather and Weather Underground
 Never base important decisions on this or any weather information obtained from the Internet
Updated Automatically by Ambient Weather's Virtual Weather Station  V14.01